Weather reports worldwide

Advertisment
Exeter Airport No. 2, United Kingdom (3844): temperature & dewpoint: 20.03.2019 07:00:00 - 26.03.2019 07:00:00 (GMT)Exeter Airport No. 2, United Kingdom (3844): wind speed: 20.03.2019 07:00:00 - 26.03.2019 07:00:00 (GMT)Exeter Airport No. 2, United Kingdom (3844): wind direction: 20.03.2019 07:00:00 - 26.03.2019 07:00:00 (GMT)Exeter Airport No. 2, United Kingdom (3844): reduced air pressure: 20.03.2019 07:00:00 - 26.03.2019 07:00:00 (GMT)Exeter Airport No. 2, United Kingdom (3844): visibility: 20.03.2019 07:00:00 - 26.03.2019 07:00:00 (GMT)Exeter Airport No. 2, United Kingdom (3844): sunshine duration: 20.03.2019 07:00:00 - 26.03.2019 07:00:00 (GMT)Exeter Airport No. 2, United Kingdom (3844): precipitation: 20.03.2019 07:00:00 - 26.03.2019 07:00:00 (GMT)
Date & Time tt [°C] td [°C] ff [km/h] ff [kn] dd ppp [hPa] vv [km] sd [min] rr [mm]
26.03.2019 07:00:00 - - - - - - - - -
26.03.2019 06:00:00 -0,7 -1,0 4 2 ENE 1035,7 - 0 0,0
26.03.2019 05:00:00 -1,2 -1,7 4 2 N 1035,9 - 0 0,0
26.03.2019 04:00:00 -1,1 -1,4 5 3 ENE 1035,7 - 0 0,0
26.03.2019 03:00:00 -0,5 -0,9 2 1 NW 1035,8 - 0 0,0
26.03.2019 02:00:00 -0,4 -1,1 2 1 NNE 1035,9 - 0 0,0
26.03.2019 01:00:00 0,0 -0,8 4 2 E 1036,1 - 0 0,0
26.03.2019 00:00:00 0,3 -1,1 2 1 W 1036,2 - - 0,0
25.03.2019 23:00:00 1,7 0,7 5 3 ENE 1036,1 - 0 0,0
25.03.2019 22:00:00 2,4 0,7 2 1 ESE 1035,9 - 0 0,0
25.03.2019 21:00:00 4,1 0,7 2 1 NNE 1035,3 - 0 0,0
25.03.2019 20:00:00 5,9 0,5 4 2 WNW 1034,7 - 0 0,0
25.03.2019 19:00:00 7,2 0,0 4 2 NNE 1034,3 - 18 0,0
25.03.2019 18:00:00 10,9 0,1 5 3 N 1033,8 - 60 0,0
25.03.2019 17:00:00 11,9 1,4 5 3 N 1033,6 - 60 0,0
25.03.2019 16:00:00 12,2 -0,5 9 5 N 1033,5 - 60 0,0
25.03.2019 15:00:00 12,3 0,9 11 6 NNE 1033,8 - 60 0,0
25.03.2019 14:00:00 12,2 2,4 9 5 N 1033,7 - 60 0,0
25.03.2019 13:00:00 11,5 1,4 9 5 NNE 1034,0 - 60 0,0
25.03.2019 12:00:00 11,2 3,1 8 4 NNE 1034,2 - 48 0,0
25.03.2019 11:00:00 9,5 2,8 15 8 N 1034,4 - 12 0,0
25.03.2019 10:00:00 9,1 3,8 18 10 NNE 1034,3 - 18 0,0
25.03.2019 09:00:00 8,7 4,0 21 11 NNW 1034,0 - 30 0,0
25.03.2019 08:00:00 7,4 4,7 9 5 NW 1033,2 - 0 0,0
25.03.2019 07:00:00 5,8 4,2 11 6 WNW 1032,8 - 6 0,0
25.03.2019 06:00:00 5,5 3,6 9 5 WNW 1032,5 - 0 0,0
25.03.2019 05:00:00 4,7 3,1 9 5 WNW 1031,8 - 0 0,0
25.03.2019 04:00:00 6,5 4,5 9 5 NNW 1031,7 - 0 0,0
25.03.2019 03:00:00 5,3 4,0 9 5 NW 1031,7 - 0 0,0
25.03.2019 02:00:00 5,3 4,1 8 4 W 1031,8 - 0 0,0
25.03.2019 01:00:00 5,4 3,9 13 7 WNW 1031,8 - 0 0,0
25.03.2019 00:00:00 4,7 3,6 8 4 WNW 1032,3 - - 0,0
24.03.2019 23:00:00 4,1 2,8 9 5 NW 1032,5 - 0 0,0
24.03.2019 22:00:00 4,7 3,2 8 4 WNW 1032,9 - 0 0,0
24.03.2019 21:00:00 5,7 3,8 13 7 WNW 1033,0 - 0 0,0
24.03.2019 20:00:00 6,1 3,9 15 8 NW 1032,6 - 0 0,0
24.03.2019 19:00:00 6,5 2,6 9 5 WNW 1032,4 - 24 0,0
24.03.2019 18:00:00 8,8 2,3 15 8 NW 1031,7 - 60 0,0
24.03.2019 17:00:00 10,1 1,4 18 10 NW 1031,5 - 60 0,0
24.03.2019 16:00:00 10,9 1,8 22 12 NW 1031,6 - 60 0,0
24.03.2019 15:00:00 11,6 2,0 22 12 NW 1031,6 - 60 0,0
24.03.2019 14:00:00 12,1 3,6 16 9 NNW 1031,6 - 60 0,0
24.03.2019 13:00:00 12,4 3,7 16 9 NW 1032,2 - 48 0,0
24.03.2019 12:00:00 12,7 5,1 11 6 NNW 1032,3 - 42 0,0
24.03.2019 11:00:00 11,7 4,6 11 6 NW 1032,5 - 60 0,0
24.03.2019 10:00:00 10,6 3,8 9 5 N 1032,6 - 54 0,0
24.03.2019 09:00:00 8,8 5,1 9 5 WNW 1032,8 - 36 0,0
24.03.2019 08:00:00 7,3 4,7 4 2 NNW 1032,6 - 60 0,0
24.03.2019 07:00:00 4,7 3,2 5 3 S 1031,8 - 6 0,0
24.03.2019 06:00:00 6,5 3,8 4 2 NNW 1031,9 - 0 0,0
24.03.2019 05:00:00 6,5 3,9 2 1 NNW 1031,4 - 0 0,0
24.03.2019 04:00:00 7,2 3,8 5 3 N 1031,2 - 0 0,0
24.03.2019 03:00:00 7,2 4,8 4 2 NE 1031,3 - 0 0,0
24.03.2019 02:00:00 8,0 6,1 0 0 N 1031,8 - 0 0,0
24.03.2019 01:00:00 8,3 6,3 5 3 ENE 1032,2 - 0 0,0
24.03.2019 00:00:00 8,7 6,4 5 3 ENE 1032,3 - - 0,0
23.03.2019 23:00:00 8,9 6,8 4 2 E 1032,2 - 0 0,0
23.03.2019 22:00:00 9,3 7,9 2 1 S 1032,1 - 0 0,0
23.03.2019 21:00:00 9,4 7,9 2 1 W 1032,3 - 0 0,0
23.03.2019 20:00:00 9,5 7,9 0 0 N 1032,1 - 0 0,0
23.03.2019 19:00:00 9,7 8,0 2 1 W 1031,7 - 0 0,0
23.03.2019 18:00:00 10,2 8,4 5 3 S 1031,6 - 0 0,0
23.03.2019 17:00:00 10,3 8,5 8 4 SSE 1031,5 - 0 0,0
23.03.2019 16:00:00 11,3 8,4 8 4 SE 1031,3 - 0 0,0
23.03.2019 15:00:00 12,0 8,1 11 6 E 1031,4 - 0 0,0
23.03.2019 14:00:00 10,9 7,6 11 6 E 1031,8 - 0 0,0
23.03.2019 13:00:00 10,8 7,7 8 4 ENE 1032,2 - 0 0,0
23.03.2019 12:00:00 10,4 6,9 15 8 ENE 1032,1 - 0 0,0
23.03.2019 11:00:00 10,6 6,9 11 6 NE 1032,0 - 0 0,0
23.03.2019 10:00:00 10,2 7,6 9 5 NE 1032,1 - 0 0,0
23.03.2019 09:00:00 9,6 7,4 8 4 NNE 1031,8 - 0 0,0
23.03.2019 08:00:00 9,3 7,8 8 4 N 1031,4 - 0 0,0
23.03.2019 07:00:00 8,8 7,5 8 4 NE 1030,8 - 0 0,0
23.03.2019 06:00:00 8,7 8,1 5 3 N 1030,2 - 0 0,0
23.03.2019 05:00:00 8,6 8,0 4 2 NNW 1029,9 - 0 0,0
23.03.2019 04:00:00 8,5 7,9 0 0 N 1029,5 - 0 0,0
23.03.2019 03:00:00 8,2 7,4 2 1 E 1029,4 - 0 0,0
23.03.2019 02:00:00 8,4 7,2 2 1 ENE 1029,4 - 0 0,0
23.03.2019 01:00:00 7,7 6,5 2 1 S 1028,9 - 0 0,0
23.03.2019 00:00:00 8,6 7,2 2 1 S 1028,7 - - 0,0
22.03.2019 23:00:00 7,8 6,8 2 1 SE 1029,0 - 0 0,0
22.03.2019 22:00:00 9,1 7,0 2 1 NE 1028,9 - 0 0,0
22.03.2019 21:00:00 9,6 6,7 4 2 W 1028,6 - 0 0,0
22.03.2019 20:00:00 10,5 7,5 5 3 WNW 1028,2 - 0 0,0
22.03.2019 19:00:00 11,1 7,8 8 4 WNW 1027,8 - 0 0,0
22.03.2019 18:00:00 11,2 8,3 11 6 SSW 1027,3 - 0 0,0
22.03.2019 17:00:00 11,3 8,7 11 6 SSW 1027,2 - 0 0,0
22.03.2019 16:00:00 11,7 8,3 13 7 S 1027,1 - 0 0,0
22.03.2019 15:00:00 11,1 7,5 13 7 S 1027,5 - 0 0,0
22.03.2019 14:00:00 11,1 7,4 13 7 S 1027,6 - 0 0,0
22.03.2019 13:00:00 11,2 7,2 13 7 S 1027,9 - 0 0,0
22.03.2019 12:00:00 11,4 7,2 13 7 S 1028,0 - 0 0,0
22.03.2019 11:00:00 11,2 7,2 13 7 S 1028,5 - 0 0,0
22.03.2019 10:00:00 11,0 7,1 11 6 S 1028,6 - 0 0,0
22.03.2019 09:00:00 10,2 7,3 8 4 SW 1028,9 - 0 0,0
22.03.2019 08:00:00 9,8 7,0 9 5 SW 1028,7 - 0 0,0
22.03.2019 07:00:00 9,5 6,9 8 4 S 1028,5 - 0 0,0
22.03.2019 06:00:00 9,4 6,6 9 5 SSW 1028,6 - 0 0,0
22.03.2019 05:00:00 9,5 6,7 8 4 SSW 1028,6 - 0 0,0
22.03.2019 04:00:00 9,4 7,3 8 4 SW 1029,0 0,6 0 0,0
22.03.2019 03:00:00 9,3 7,0 13 7 S 1029,1 1,8 0 0,0
22.03.2019 02:00:00 9,2 6,8 15 8 S 1029,7 7 0 0,0
22.03.2019 01:00:00 9,5 7,8 11 6 SSW 1030,4 0,8 0 0,0
22.03.2019 00:00:00 9,6 7,9 8 4 S 1030,3 17 - 0,0
21.03.2019 23:00:00 9,7 7,9 11 6 SSE 1030,5 40 0 0,0
21.03.2019 22:00:00 10,0 7,9 5 3 SSE 1031,1 40 0 0,0
21.03.2019 21:00:00 10,2 8,1 5 3 SSE 1031,6 35 0 0,0
21.03.2019 20:00:00 10,3 8,1 5 3 SSE 1032,0 45 0 0,0
21.03.2019 19:00:00 10,3 8,1 9 5 SSE 1032,0 30 0 0,0
21.03.2019 18:00:00 10,7 8,1 11 6 S 1032,2 35 0 0,0
21.03.2019 17:00:00 11,4 8,5 9 5 S 1032,1 30 0 0,0
21.03.2019 16:00:00 11,9 9,1 11 6 S 1032,3 40 0 0,0
21.03.2019 15:00:00 12,1 9,3 13 7 SE 1032,7 55 0 0,0
21.03.2019 14:00:00 13,1 9,8 8 4 SSE 1033,2 26 0 0,0
21.03.2019 13:00:00 13,0 9,1 2 1 ESE 1034,2 1,2 0 0,0
21.03.2019 12:00:00 12,1 9,2 2 1 N 1034,6 25 0 0,0
21.03.2019 11:00:00 11,7 8,8 4 2 S 1034,7 35 0 0,0
21.03.2019 10:00:00 11,1 9,4 5 3 SSW 1034,8 4,0 0 0,0
21.03.2019 09:00:00 10,1 8,7 8 4 SSW 1034,8 1,2 0 0,0
21.03.2019 08:00:00 9,4 8,4 5 3 SW 1034,6 0,7 0 0,0
21.03.2019 07:00:00 9,0 8,3 4 2 SW 1034,1 1,2 0 0,0
21.03.2019 06:00:00 8,7 8,0 2 1 WNW 1034,0 12 0 0,0
21.03.2019 05:00:00 8,2 7,6 2 1 S 1033,5 9 0 0,0
21.03.2019 04:00:00 8,1 7,2 2 1 SW 1033,2 13 0 0,0
21.03.2019 03:00:00 8,1 6,6 5 3 SSW 1033,4 8 0 0,0
21.03.2019 02:00:00 9,5 7,9 8 4 SW 1033,8 1,1 0 0,0
21.03.2019 01:00:00 9,9 8,1 5 3 W 1034,1 2,0 0 0,0
21.03.2019 00:00:00 10,1 8,4 8 4 NW 1034,1 15 - 0,0
20.03.2019 23:00:00 10,1 8,7 8 4 NW 1034,0 5 0 0,0
20.03.2019 22:00:00 10,2 8,7 2 1 NNE 1033,9 14 0 0,0
20.03.2019 21:00:00 10,2 8,9 5 3 NW 1033,7 11 0 0,0
20.03.2019 20:00:00 10,9 9,4 8 4 NW 1033,5 3,7 0 0,0
20.03.2019 19:00:00 11,0 9,5 2 1 SE 1033,2 19 0 0,0
20.03.2019 18:00:00 11,5 9,5 5 3 ESE 1032,7 25 0 0,0
20.03.2019 17:00:00 11,9 9,6 5 3 E 1032,4 25 0 0,0
20.03.2019 16:00:00 12,5 9,1 9 5 SSE 1032,2 30 0 0,0
20.03.2019 15:00:00 13,2 9,0 5 3 ESE 1032,3 40 0 0,0
20.03.2019 14:00:00 12,7 8,9 5 3 E 1032,6 45 0 0,0
20.03.2019 13:00:00 12,6 7,9 4 2 W 1033,0 70 0 0,0
20.03.2019 12:00:00 12,2 7,6 4 2 SSW 1033,1 75 0 0,0
20.03.2019 11:00:00 11,5 7,9 5 3 S 1033,1 60 0 0,0
20.03.2019 10:00:00 10,8 8,6 2 1 NNE 1033,3 60 0 0,0
20.03.2019 09:00:00 9,4 8,9 4 2 ENE 1033,1 17 0 0,0
20.03.2019 08:00:00 8,4 8,2 2 1 NNW 1032,5 16 0 0,0
20.03.2019 07:00:00 7,3 7,1 0 0 N 1031,8 9 0 0,0

tt = temperature
td = dewpoint
ff = wind speed
dd = wind direction
ppp = reduced air pressure
vv = visibility
sd = sunshine duration
rr = precipitation

Next stations